Time,TemperatureF,DewpointF,PressureIn,WindDirection,WindDirectionDegrees,WindSpeedMPH,WindSpeedGustMPH,Humidity,HourlyPrecipIn,Conditions,Clouds,dailyrainin,SoftwareType,DateUTC
2013-02-06 00:02:00,30.0,-99.9,29.90,NE,47,4.0,8.0,-999,-99.99,,,-99.99,,2013-02-06 05:02:00,
2013-02-06 00:12:00,-999.0,-99.9,-100.00,NE,37,3.0,6.0,-999,-99.99,,,-99.99,,2013-02-06 05:12:00,
2013-02-06 00:22:00,-999.0,-99.9,-100.00,NE,42,3.0,6.0,-999,-99.99,,,-99.99,,2013-02-06 05:22:00,
2013-02-06 00:32:00,30.0,-99.9,29.91,ENE,57,3.0,5.0,-999,-99.99,,,-99.99,,2013-02-06 05:32:00,
2013-02-06 00:42:00,-999.0,-99.9,-100.00,NNE,23,5.0,7.0,-999,-99.99,,,-99.99,,2013-02-06 05:42:00,
2013-02-06 00:53:00,-999.0,-99.9,-100.00,NE,38,4.0,7.0,-999,-99.99,,,-99.99,,2013-02-06 05:53:00,
2013-02-06 01:01:00,30.0,-99.9,29.91,NNE,28,4.0,5.0,-999,-99.99,,,-99.99,,2013-02-06 06:01:00,
2013-02-06 01:11:00,-999.0,-99.9,-100.00,NE,35,4.0,8.0,-999,-99.99,,,-99.99,,2013-02-06 06:11:00,
2013-02-06 01:22:00,-999.0,-99.9,-100.00,NE,35,6.0,9.0,-999,-99.99,,,-99.99,,2013-02-06 06:22:00,
2013-02-06 01:32:00,30.0,-99.9,29.91,NE,35,5.0,7.0,-999,-99.99,,,-99.99,,2013-02-06 06:32:00,
2013-02-06 01:42:00,-999.0,-99.9,-100.00,NE,34,4.0,7.0,-999,-99.99,,,-99.99,,2013-02-06 06:42:00,
2013-02-06 01:52:00,-999.0,-99.9,-100.00,NNE,26,5.0,7.0,-999,-99.99,,,-99.99,,2013-02-06 06:52:00,
2013-02-06 02:02:00,30.0,-99.9,29.91,NNE,19,4.0,8.0,-999,-99.99,,,-99.99,,2013-02-06 07:02:00,
2013-02-06 02:11:00,-999.0,-99.9,-100.00,NNE,24,4.0,7.0,-999,-99.99,,,-99.99,,2013-02-06 07:11:00,
2013-02-06 02:22:00,-999.0,-99.9,-100.00,NNE,24,6.0,8.0,-999,-99.99,,,-99.99,,2013-02-06 07:22:00,
2013-02-06 02:32:00,30.0,-99.9,29.91,NNE,25,5.0,8.0,-999,-99.99,,,-99.99,,2013-02-06 07:32:00,
2013-02-06 02:42:00,-999.0,-99.9,-100.00,NNE,17,3.0,6.0,-999,-99.99,,,-99.99,,2013-02-06 07:42:00,
2013-02-06 02:52:00,-999.0,-99.9,-100.00,NNE,31,3.0,6.0,-999,-99.99,,,-99.99,,2013-02-06 07:52:00,
2013-02-06 03:01:00,29.0,-99.9,29.91,NNE,16,3.0,6.0,-999,-99.99,,,-99.99,,2013-02-06 08:01:00,
2013-02-06 03:11:00,-999.0,-99.9,-100.00,NNE,25,3.0,5.0,-999,-99.99,,,-99.99,,2013-02-06 08:11:00,
2013-02-06 03:22:00,-999.0,-99.9,-100.00,ENE,74,2.0,3.0,-999,-99.99,,,-99.99,,2013-02-06 08:22:00,
2013-02-06 03:32:00,29.0,-99.9,29.91,NE,41,2.0,3.0,-999,-99.99,,,-99.99,,2013-02-06 08:32:00,
2013-02-06 03:42:00,-999.0,-99.9,-100.00,East,79,1.0,3.0,-999,-99.99,,,-99.99,,2013-02-06 08:42:00,
2013-02-06 03:53:00,-999.0,-99.9,-100.00,NE,48,1.0,3.0,-999,-99.99,,,-99.99,,2013-02-06 08:53:00,
2013-02-06 04:22:00,-999.0,-99.9,-100.00,SSE,156,0.0,1.0,-999,-99.99,,,-99.99,,2013-02-06 09:22:00,
2013-02-06 04:32:00,29.0,-99.9,29.92,South,175,2.0,2.0,-999,-99.99,,,-99.99,,2013-02-06 09:32:00,
2013-02-06 04:42:00,-999.0,-99.9,-100.00,SSE,157,1.0,2.0,-999,-99.99,,,-99.99,,2013-02-06 09:42:00,
2013-02-06 04:52:00,-999.0,-99.9,-100.00,SE,141,1.0,1.0,-999,-99.99,,,-99.99,,2013-02-06 09:52:00,
2013-02-06 05:01:00,30.0,-99.9,29.93,ESE,104,0.0,1.0,-999,-99.99,,,-99.99,,2013-02-06 10:01:00,
2013-02-06 05:11:00,-999.0,-99.9,-100.00,SE,140,0.0,1.0,-999,-99.99,,,-99.99,,2013-02-06 10:11:00,
2013-02-06 05:22:00,-999.0,-99.9,-100.00,SSE,149,0.0,1.0,-999,-99.99,,,-99.99,,2013-02-06 10:22:00,
2013-02-06 05:42:00,-999.0,-99.9,-100.00,WSW,247,2.0,3.0,-999,-99.99,,,-99.99,,2013-02-06 10:42:00,
2013-02-06 05:52:00,-999.0,-99.9,-100.00,WNW,293,5.0,7.0,-999,-99.99,,,-99.99,,2013-02-06 10:52:00,
2013-02-06 06:02:00,-999.0,-99.9,29.95,WNW,302,5.0,6.0,-999,-99.99,,,-99.99,,2013-02-06 11:02:00,
2013-02-06 06:11:00,-999.0,-99.9,-100.00,North,355,4.0,6.0,-999,-99.99,,,-99.99,,2013-02-06 11:11:00,
2013-02-06 06:22:00,-999.0,-99.9,-100.00,NNW,347,2.0,4.0,-999,-99.99,,,-99.99,,2013-02-06 11:22:00,
2013-02-06 06:33:00,31.0,-99.9,29.97,North,360,2.0,4.0,-999,-99.99,,,-99.99,,2013-02-06 11:33:00,
2013-02-06 06:42:00,-999.0,-99.9,-100.00,NW,320,3.0,5.0,-999,-99.99,,,-99.99,,2013-02-06 11:42:00,
2013-02-06 06:53:00,-999.0,-99.9,-100.00,NW,316,5.0,6.0,-999,-99.99,,,-99.99,,2013-02-06 11:53:00,
2013-02-06 07:02:00,32.0,-99.9,29.98,NW,314,3.0,7.0,-999,-99.99,,,-99.99,,2013-02-06 12:02:00,
2013-02-06 07:12:00,-999.0,-99.9,-100.00,WNW,302,5.0,7.0,-999,-99.99,,,-99.99,,2013-02-06 12:12:00,
2013-02-06 07:22:00,-999.0,-99.9,-100.00,WNW,299,7.0,9.0,-999,-99.99,,,-99.99,,2013-02-06 12:22:00,
2013-02-06 07:32:00,32.0,-99.9,-100.00,NW,310,6.0,8.0,-999,-99.99,,,-99.99,,2013-02-06 12:32:00,
2013-02-06 07:42:00,32.0,-99.9,-100.00,WNW,303,5.0,8.0,-999,-99.99,,,-99.99,,2013-02-06 12:42:00,
2013-02-06 07:52:00,32.0,-99.9,-100.00,WNW,296,5.0,6.0,-999,-99.99,,,-99.99,,2013-02-06 12:52:00,
2013-02-06 08:02:00,32.0,-99.9,30.01,WNW,295,6.0,7.0,-999,-99.99,,,-99.99,,2013-02-06 13:02:00,
2013-02-06 08:12:00,33.0,-99.9,-100.00,WNW,296,8.0,9.0,-999,-99.99,,,-99.99,,2013-02-06 13:12:00,
2013-02-06 08:22:00,33.0,-99.9,-100.00,NW,311,9.0,12.0,-999,-99.99,,,-99.99,,2013-02-06 13:22:00,
2013-02-06 08:32:00,33.0,-99.9,30.04,NW,305,9.0,12.0,-999,-99.99,,,-99.99,,2013-02-06 13:32:00,
2013-02-06 08:42:00,33.0,-99.9,-100.00,NW,309,11.0,12.0,-999,-99.99,,,-99.99,,2013-02-06 13:42:00,
2013-02-06 08:52:00,33.0,-99.9,-100.00,NW,312,10.0,14.0,-999,-99.99,,,-99.99,,2013-02-06 13:52:00,
2013-02-06 09:02:00,33.0,-99.9,-100.00,NW,315,9.0,12.0,-999,-99.99,,,-99.99,,2013-02-06 14:02:00,
2013-02-06 09:11:00,33.0,-99.9,-100.00,NW,310,11.0,14.0,-999,-99.99,,,-99.99,,2013-02-06 14:11:00,
2013-02-06 09:22:00,34.0,-99.9,-100.00,NW,324,9.0,13.0,-999,-99.99,,,-99.99,,2013-02-06 14:22:00,
2013-02-06 09:32:00,34.0,-99.9,-100.00,NW,324,9.0,13.0,-999,-99.99,,,-99.99,,2013-02-06 14:32:00,
2013-02-06 09:42:00,34.0,-99.9,30.05,NW,323,8.0,13.0,-999,-99.99,,,-99.99,,2013-02-06 14:42:00,
2013-02-06 09:52:00,34.0,-99.9,-100.00,North,350,10.0,13.0,-999,-99.99,,,-99.99,,2013-02-06 14:52:00,
2013-02-06 10:02:00,34.0,-99.9,-100.00,North,350,10.0,13.0,-999,-99.99,,,-99.99,,2013-02-06 15:02:00,
2013-02-06 10:11:00,34.0,-99.9,-100.00,NNW,331,12.0,16.0,-999,-99.99,,,-99.99,,2013-02-06 15:11:00,
2013-02-06 10:21:00,34.0,-99.9,30.05,NNW,327,13.0,16.0,-999,-99.99,,,-99.99,,2013-02-06 15:21:00,
2013-02-06 10:32:00,34.0,-99.9,-100.00,NNW,340,13.0,17.0,-999,-99.99,,,-99.99,,2013-02-06 15:32:00,
2013-02-06 10:42:00,35.0,-99.9,-100.00,NW,324,11.0,15.0,-999,-99.99,,,-99.99,,2013-02-06 15:42:00,
2013-02-06 10:52:00,35.0,-99.9,-100.00,NW,320,17.0,19.0,-999,-99.99,,,-99.99,,2013-02-06 15:52:00,
2013-02-06 11:01:00,35.0,-99.9,30.09,NW,324,13.0,17.0,-999,-99.99,,,-99.99,,2013-02-06 16:01:00,
2013-02-06 11:11:00,35.0,-99.9,-100.00,NNW,331,10.0,15.0,-999,-99.99,,,-99.99,,2013-02-06 16:11:00,
2013-02-06 11:22:00,36.0,-99.9,-100.00,NW,322,12.0,15.0,-999,-99.99,,,-99.99,,2013-02-06 16:22:00,
2013-02-06 11:32:00,36.0,-99.9,30.08,NNW,348,11.0,16.0,-999,-99.99,,,-99.99,,2013-02-06 16:32:00,
2013-02-06 11:42:00,36.0,-99.9,-100.00,NNW,327,12.0,17.0,-999,-99.99,,,-99.99,,2013-02-06 16:42:00,
2013-02-06 11:52:00,36.0,-99.9,-100.00,NNW,332,13.0,18.0,-999,-99.99,,,-99.99,,2013-02-06 16:52:00,
2013-02-06 12:02:00,36.0,-99.9,30.07,NNW,333,14.0,18.0,-999,-99.99,,,-99.99,,2013-02-06 17:02:00,
2013-02-06 12:12:00,37.0,-99.9,-100.00,NW,326,8.0,16.0,-999,-99.99,,,-99.99,,2013-02-06 17:12:00,
2013-02-06 12:22:00,37.0,-99.9,-100.00,NW,319,13.0,16.0,-999,-99.99,,,-99.99,,2013-02-06 17:22:00,
2013-02-06 12:33:00,36.0,-99.9,30.07,NNW,343,14.0,18.0,-999,-99.99,,,-99.99,,2013-02-06 17:33:00,
2013-02-06 12:42:00,37.0,-99.9,-100.00,NNW,332,10.0,18.0,-999,-99.99,,,-99.99,,2013-02-06 17:42:00,
2013-02-06 12:53:00,37.0,-99.9,-100.00,NW,325,16.0,19.0,-999,-99.99,,,-99.99,,2013-02-06 17:53:00,
2013-02-06 13:02:00,36.0,-99.9,30.08,NW,324,15.0,19.0,-999,-99.99,,,-99.99,,2013-02-06 18:02:00,
2013-02-06 13:12:00,36.0,-99.9,-100.00,NNW,341,12.0,20.0,-999,-99.99,,,-99.99,,2013-02-06 18:12:00,
2013-02-06 13:23:00,36.0,-99.9,-100.00,NNW,342,14.0,21.0,-999,-99.99,,,-99.99,,2013-02-06 18:23:00,
2013-02-06 13:33:00,36.0,-99.9,-100.00,NNW,348,11.0,18.0,-999,-99.99,,,-99.99,,2013-02-06 18:33:00,
2013-02-06 13:42:00,36.0,-99.9,-100.00,NW,325,13.0,19.0,-999,-99.99,,,-99.99,,2013-02-06 18:42:00,
2013-02-06 13:52:00,37.0,-99.9,-100.00,NNW,338,13.0,17.0,-999,-99.99,,,-99.99,,2013-02-06 18:52:00,
2013-02-06 14:02:00,37.0,-99.9,30.08,North,350,12.0,17.0,-999,-99.99,,,-99.99,,2013-02-06 19:02:00,
2013-02-06 14:11:00,37.0,-99.9,-100.00,NNW,329,14.0,23.0,-999,-99.99,,,-99.99,,2013-02-06 19:11:00,
2013-02-06 14:22:00,37.0,-99.9,-100.00,NNW,333,11.0,23.0,-999,-99.99,,,-99.99,,2013-02-06 19:22:00,
2013-02-06 14:32:00,37.0,-99.9,30.09,North,351,16.0,20.0,-999,-99.99,,,-99.99,,2013-02-06 19:32:00,
2013-02-06 14:42:00,37.0,-99.9,-100.00,NNW,345,13.0,19.0,-999,-99.99,,,-99.99,,2013-02-06 19:42:00,
2013-02-06 14:52:00,38.0,-99.9,-100.00,NW,323,14.0,19.0,-999,-99.99,,,-99.99,,2013-02-06 19:52:00,
2013-02-06 15:01:00,38.0,-99.9,-100.00,NNW,329,12.0,17.0,-999,-99.99,,,-99.99,,2013-02-06 20:01:00,
2013-02-06 15:11:00,38.0,-99.9,-100.00,NW,310,17.0,23.0,-999,-99.99,,,-99.99,,2013-02-06 20:11:00,
2013-02-06 15:22:00,38.0,-99.9,-100.00,NNW,328,16.0,21.0,-999,-99.99,,,-99.99,,2013-02-06 20:22:00,
2013-02-06 15:32:00,38.0,-99.9,30.11,NW,319,17.0,19.0,-999,-99.99,,,-99.99,,2013-02-06 20:32:00,
2013-02-06 15:42:00,38.0,-99.9,-100.00,NNW,330,15.0,19.0,-999,-99.99,,,-99.99,,2013-02-06 20:42:00,
2013-02-06 15:52:00,38.0,-99.9,-100.00,NNW,338,12.0,17.0,-999,-99.99,,,-99.99,,2013-02-06 20:52:00,
2013-02-06 16:02:00,38.0,-99.9,30.11,NNW,332,16.0,20.0,-999,-99.99,,,-99.99,,2013-02-06 21:02:00,
2013-02-06 16:11:00,38.0,-99.9,-100.00,NW,322,19.0,22.0,-999,-99.99,,,-99.99,,2013-02-06 21:11:00,
2013-02-06 16:22:00,38.0,-99.9,-100.00,NW,325,19.0,23.0,-999,-99.99,,,-99.99,,2013-02-06 21:22:00,
2013-02-06 16:32:00,38.0,-99.9,30.13,NW,325,15.0,24.0,-999,-99.99,,,-99.99,,2013-02-06 21:32:00,
2013-02-06 16:42:00,38.0,-99.9,-100.00,NW,318,18.0,21.0,-999,-99.99,,,-99.99,,2013-02-06 21:42:00,
2013-02-06 16:52:00,38.0,-99.9,-100.00,NNW,334,14.0,19.0,-999,-99.99,,,-99.99,,2013-02-06 21:52:00,
2013-02-06 17:01:00,38.0,-99.9,30.14,NNW,330,14.0,19.0,-999,-99.99,,,-99.99,,2013-02-06 22:01:00,
2013-02-06 17:11:00,38.0,-99.9,-100.00,North,350,16.0,21.0,-999,-99.99,,,-99.99,,2013-02-06 22:11:00,
2013-02-06 17:22:00,38.0,-99.9,-100.00,NNW,344,12.0,21.0,-999,-99.99,,,-99.99,,2013-02-06 22:22:00,
2013-02-06 17:32:00,38.0,-99.9,30.15,NNW,340,14.0,19.0,-999,-99.99,,,-99.99,,2013-02-06 22:32:00,
2013-02-06 17:42:00,37.0,-99.9,-100.00,North,355,13.0,19.0,-999,-99.99,,,-99.99,,2013-02-06 22:42:00,
2013-02-06 17:52:00,37.0,-99.9,-100.00,North,359,13.0,18.0,-999,-99.99,,,-99.99,,2013-02-06 22:52:00,
2013-02-06 18:01:00,37.0,-99.9,30.17,North,2,13.0,16.0,-999,-99.99,,,-99.99,,2013-02-06 23:01:00,
2013-02-06 18:11:00,37.0,-99.9,-100.00,North,5,18.0,22.0,-999,-99.99,,,-99.99,,2013-02-06 23:11:00,
2013-02-06 18:21:00,37.0,-99.9,-100.00,NNW,343,13.0,18.0,-999,-99.99,,,-99.99,,2013-02-06 23:21:00,
2013-02-06 18:32:00,37.0,-99.9,30.19,NNW,339,14.0,18.0,-999,-99.99,,,-99.99,,2013-02-06 23:32:00,
2013-02-06 18:42:00,37.0,-99.9,-100.00,NNW,346,14.0,17.0,-999,-99.99,,,-99.99,,2013-02-06 23:42:00,
2013-02-06 18:52:00,37.0,-99.9,-100.00,North,353,17.0,20.0,-999,-99.99,,,-99.99,,2013-02-06 23:52:00,
2013-02-06 19:02:00,37.0,-99.9,30.22,North,1,18.0,20.0,-999,-99.99,,,-99.99,,2013-02-07 00:02:00,
2013-02-06 19:11:00,36.0,-99.9,-100.00,NNW,346,16.0,21.0,-999,-99.99,,,-99.99,,2013-02-07 00:11:00,
2013-02-06 19:22:00,36.0,-99.9,-100.00,NNW,347,17.0,20.0,-999,-99.99,,,-99.99,,2013-02-07 00:22:00,
2013-02-06 19:32:00,36.0,-99.9,30.24,North,353,19.0,24.0,-999,-99.99,,,-99.99,,2013-02-07 00:32:00,
2013-02-06 19:42:00,35.0,-99.9,-100.00,North,359,19.0,23.0,-999,-99.99,,,-99.99,,2013-02-07 00:42:00,
2013-02-06 19:52:00,35.0,-99.9,-100.00,North,354,16.0,23.0,-999,-99.99,,,-99.99,,2013-02-07 00:52:00,
2013-02-06 20:02:00,35.0,-99.9,-100.00,North,-999,18.0,22.0,-999,-99.99,,,-99.99,,2013-02-07 01:02:00,
2013-02-06 20:11:00,35.0,-99.9,-100.00,North,358,19.0,23.0,-999,-99.99,,,-99.99,,2013-02-07 01:11:00,
2013-02-06 20:22:00,35.0,-99.9,-100.00,North,356,17.0,22.0,-999,-99.99,,,-99.99,,2013-02-07 01:22:00,
2013-02-06 20:32:00,35.0,-99.9,30.27,NNW,346,15.0,21.0,-999,-99.99,,,-99.99,,2013-02-07 01:32:00,
2013-02-06 20:42:00,34.0,-99.9,-100.00,NNW,346,15.0,21.0,-999,-99.99,,,-99.99,,2013-02-07 01:42:00,
2013-02-06 20:52:00,34.0,-99.9,-100.00,North,356,18.0,23.0,-999,-99.99,,,-99.99,,2013-02-07 01:52:00,
2013-02-06 21:02:00,34.0,-99.9,30.27,North,3,21.0,26.0,-999,-99.99,,,-99.99,,2013-02-07 02:02:00,
2013-02-06 21:12:00,34.0,-99.9,-100.00,North,353,18.0,23.0,-999,-99.99,,,-99.99,,2013-02-07 02:12:00,
2013-02-06 21:22:00,33.0,-99.9,-100.00,NNW,346,15.0,19.0,-999,-99.99,,,-99.99,,2013-02-07 02:22:00,
2013-02-06 21:32:00,33.0,-99.9,30.29,NNW,337,13.0,18.0,-999,-99.99,,,-99.99,,2013-02-07 02:32:00,
2013-02-06 21:42:00,33.0,-99.9,30.29,NNW,337,13.0,18.0,-999,-99.99,,,-99.99,,2013-02-07 02:42:00,
2013-02-06 21:52:00,33.0,-99.9,30.29,NNW,337,13.0,18.0,-999,-99.99,,,-99.99,,2013-02-07 02:52:00,
2013-02-06 22:02:00,33.0,-99.9,30.29,North,1,18.0,20.0,-999,-99.99,,,-99.99,,2013-02-07 03:02:00,
2013-02-06 22:11:00,33.0,-99.9,-100.00,North,10,14.0,20.0,-999,-99.99,,,-99.99,,2013-02-07 03:11:00,
2013-02-06 22:22:00,32.0,-99.9,-100.00,NNE,17,9.0,13.0,-999,-99.99,,,-99.99,,2013-02-07 03:22:00,
2013-02-06 22:32:00,-999.0,-99.9,30.30,NNE,15,9.0,14.0,-999,-99.99,,,-99.99,,2013-02-07 03:32:00,
2013-02-06 22:42:00,-999.0,-99.9,-100.00,NNE,15,12.0,17.0,-999,-99.99,,,-99.99,,2013-02-07 03:42:00,
2013-02-06 22:52:00,-999.0,-99.9,-100.00,NNE,15,9.0,13.0,-999,-99.99,,,-99.99,,2013-02-07 03:52:00,
2013-02-06 23:01:00,31.0,-99.9,30.32,North,11,11.0,14.0,-999,-99.99,,,-99.99,,2013-02-07 04:01:00,
2013-02-06 23:11:00,-999.0,-99.9,-100.00,NNE,15,9.0,14.0,-999,-99.99,,,-99.99,,2013-02-07 04:11:00,
2013-02-06 23:22:00,-999.0,-99.9,-100.00,North,9,9.0,13.0,-999,-99.99,,,-99.99,,2013-02-07 04:22:00,
2013-02-06 23:32:00,31.0,-99.9,30.33,NNE,16,10.0,14.0,-999,-99.99,,,-99.99,,2013-02-07 04:32:00,
2013-02-06 23:42:00,-999.0,-99.9,-100.00,NNE,16,10.0,14.0,-999,-99.99,,,-99.99,,2013-02-07 04:42:00,
2013-02-06 23:53:00,-999.0,-99.9,-100.00,NNE,12,8.0,12.0,-999,-99.99,,,-99.99,,2013-02-07 04:53:00,